Wind_Speed
16 16 16 15 15 15 14 14 13 12 11 11 11 10 10 10 10 9 9 8 8 8 8 8 7 6 5 4 4 2 2 3 4 5 6 7 8 9 10 11 12 13 13 14
16 15 15 15 14 14 14 13 12 12 11 10 10 9 10 10 9 9 9 9 8 8 8 8 7 6 6 5 4 3 2 3 4 5 6 7 8 9 11 12 13 14 14 15
15 15 15 15 14 14 14 13 12 11 11 10 9 9 9 10 9 10 9 9 9 8 8 9 7 6 6 5 4 3 3 3 4 5 6 7 8 10 11 12 14 14 15 16
15 14 14 14 13 13 13 12 12 11 11 10 10 9 9 10 9 9 9 9 9 8 9 8 8 7 6 6 4 4 3 4 4 5 6 7 9 10 12 13 14 15 16 17
14 13 12 11 12 12 12 12 12 12 11 10 9 8 9 10 10 9 9 9 8 9 9 8 7 7 6 6 5 4 4 4 5 6 7 8 9 11 12 13 15 16 17 18
13 13 12 12 12 12 12 11 11 11 10 9 9 8 8 9 9 10 9 9 8 9 8 8 8 7 6 6 5 4 4 5 6 6 7 8 10 12 13 14 15 17 18 19
11 12 12 13 13 12 11 11 10 10 9 8 8 7 7 8 9 9 9 9 8 9 8 8 8 7 6 6 5 5 5 6 7 7 8 10 11 12 14 15 16 17 18 19
10 11 12 13 12 12 11 9 9 9 8 7 8 7 7 7 8 8 8 8 8 8 8 8 8 7 7 6 6 6 7 7 8 9 10 11 12 13 15 16 17 18 19 20
11 10 12 13 13 12 11 10 9 8 8 7 7 7 7 7 8 7 7 7 7 8 8 8 7 7 7 7 7 7 8 9 9 10 11 12 13 15 16 17 18 19 20 21
11 11 12 12 13 12 11 10 10 9 8 8 7 7 7 8 7 7 7 7 7 7 7 7 7 8 8 8 9 9 10 10 11 12 13 14 15 16 17 17 19 20 21 22
9 10 11 11 11 11 11 11 10 9 9 8 7 7 7 8 8 8 8 7 8 8 8 8 8 8 9 9 10 11 11 12 12 13 14 15 16 17 18 19 20 21 22 23
9 9 10 10 11 12 12 12 11 10 10 9 8 7 8 8 8 8 8 8 8 9 9 9 9 9 10 10 11 12 12 13 14 15 16 17 18 19 19 20 21 22 23 24
9 9 9 9 10 10 10 11 11 11 11 10 9 8 9 9 9 9 9 9 9 10 10 10 10 10 11 12 13 13 14 15 16 17 18 19 20 21 22 22 23 24 25 26
9 9 9 9 9 10 10 10 11 12 11 10 9 9 10 11 11 11 11 11 11 11 11 12 12 12 13 13 14 15 15 16 18 19 20 21 22 22 23 24 25 26 27 28
9 10 11 11 12 12 11 11 11 11 11 11 11 11 11 12 13 13 13 13 13 13 13 13 13 14 14 14 15 16 17 18 19 20 21 23 24 24 25 26 27 27 28 30
12 12 12 12 13 14 13 12 12 12 12 12 12 12 13 14 14 14 14 14 14 14 14 14 15 15 16 16 17 18 19 20 21 22 24 25 25 26 27 28 29 29 30 31
14 13 13 13 14 14 13 13 14 14 13 13 13 13 14 15 15 15 15 15 15 15 15 15 16 17 17 18 19 20 21 22 24 25 26 26 27 28 29 29 30 31 32 32
15 15 15 14 15 15 13 14 15 15 15 15 15 15 16 16 16 16 16 16 16 16 16 16 17 18 19 20 21 22 24 25 26 27 28 28 29 29 30 31 32 32 33 34
16 16 17 16 16 15 14 15 16 17 16 16 17 17 17 16 16 16 17 16 17 18 18 18 19 20 22 23 24 25 26 27 28 29 30 30 31 31 32 32 33 34 34 35
18 18 18 18 18 17 15 17 18 17 17 17 18 18 17 17 17 17 18 18 19 19 20 21 21 22 24 25 25 27 28 29 30 30 31 31 32 33 33 34 35 36 37 37
20 20 19 19 19 17 17 18 18 18 17 18 19 19 19 19 19 19 19 20 21 21 22 23 24 25 26 27 28 29 30 31 31 32 33 33 34 35 35 36 37 38 39 39
20 21 20 20 20 18 19 19 20 19 20 20 20 20 20 20 21 21 22 23 23 24 25 25 26 27 28 29 29 30 32 32 33 34 34 35 36 36 37 38 39 40 40 40
21 21 22 22 21 21 21 22 22 22 22 22 23 23 23 23 23 24 24 25 26 27 27 28 29 29 30 31 32 33 34 34 35 36 36 37 38 39 40 40 41 41 42 42
23 24 24 24 23 24 24 24 25 25 25 25 25 25 26 26 26 26 27 27 28 30 30 31 31 32 32 33 34 35 35 36 37 38 39 39 40 41 42 43 43 44 44 44
26 26 27 26 26 27 27 27 28 28 28 28 29 29 29 29 29 30 30 31 31 32 33 33 33 34 35 35 36 37 38 39 39 40 41 42 43 44 44 45 45 46 46 46
27 29 30 29 29 30 29 30 30 31 31 31 32 32 32 32 32 32 33 33 34 34 35 35 35 36 37 38 38 39 40 40 41 42 43 43 44 45 45 46 46 47 48 48
Wind_Direction
174 173 174 176 178 177 182 184 187 193 197 202 198 193 194 197 201 202 202 202 198 201 205 206 207 208 215 220 219 232 273 306 328 341 347 347 347 349 350 350 349 348 347 347
172 174 173 174 174 176 182 186 189 195 197 200 202 199 198 203 208 207 206 206 208 209 209 208 209 213 219 220 222 242 281 310 326 338 344 345 346 349 351 351 351 350 349 346
170 173 176 175 176 180 183 187 188 193 196 200 207 205 203 206 211 209 208 211 213 208 204 205 209 215 220 220 228 252 282 307 324 334 340 343 345 348 350 349 348 348 347 346
166 169 173 174 173 173 177 183 187 192 197 203 207 207 209 211 212 210 207 206 207 207 205 208 212 217 220 224 238 261 283 305 319 326 332 339 343 346 347 346 346 347 347 346
164 169 170 170 171 173 177 182 188 194 202 203 204 210 211 210 210 210 209 204 206 207 208 209 211 215 222 228 241 257 276 297 307 315 325 334 339 343 344 344 345 345 346 345
166 170 175 177 176 177 180 181 187 197 205 208 209 213 206 209 213 216 215 208 207 208 208 209 212 217 224 230 242 260 277 294 306 316 325 332 335 338 340 341 341 342 343 343
169 173 180 182 182 181 183 187 193 200 205 211 215 218 213 214 213 215 213 212 211 212 213 212 216 220 224 232 248 266 285 298 306 313 320 326 329 331 334 336 337 339 340 340
176 178 182 185 188 187 188 195 204 208 211 218 222 224 219 219 217 215 214 215 217 219 218 218 222 224 229 242 259 274 287 296 302 307 312 318 322 325 328 330 332 334 335 335
176 179 181 185 188 190 195 201 207 215 216 226 229 223 218 221 219 218 221 220 217 218 219 222 226 231 240 253 264 276 286 292 298 303 307 312 317 321 323 325 327 330 331 332
178 180 183 187 191 195 202 208 218 223 228 235 230 223 219 221 220 221 227 227 225 227 230 234 238 242 250 260 268 277 286 290 293 298 303 308 313 317 320 322 325 326 327 328
189 192 195 199 203 206 211 219 227 233 234 236 226 218 223 226 227 230 233 240 241 239 242 246 249 253 261 266 272 278 286 289 292 297 303 307 310 314 316 319 321 322 323 325
193 197 199 204 209 215 218 224 232 236 234 236 233 219 225 230 233 236 242 250 253 250 252 254 257 260 266 270 274 280 286 291 295 298 302 305 308 310 313 314 316 318 320 321
201 204 205 208 215 222 225 228 233 237 242 242 241 234 236 239 240 245 252 257 260 258 258 259 261 264 268 273 277 282 287 292 295 298 300 303 305 307 309 311 313 315 316 318
211 211 215 217 223 229 232 237 239 244 247 244 245 245 244 245 247 250 255 261 264 262 262 264 265 268 272 275 278 283 287 291 294 296 298 301 304 306 308 310 312 313 315 317
224 226 231 232 231 234 236 240 246 252 255 252 247 248 249 252 253 253 257 263 266 266 265 267 270 273 276 278 281 285 288 291 294 296 298 301 302 304 306 309 311 312 314 315
236 238 240 241 242 243 245 250 255 258 259 258 252 251 253 257 258 258 260 264 268 268 268 270 273 276 279 282 284 287 289 292 294 296 299 301 302 303 305 307 308 310 311 312
241 244 245 245 246 247 246 249 255 260 262 261 259 257 259 262 261 261 263 264 266 269 272 274 276 279 281 284 286 288 290 291 293 296 298 300 301 303 305 306 307 308 310 311
244 246 248 249 249 250 250 251 255 259 261 262 260 259 259 260 261 262 263 264 267 270 273 276 279 282 283 284 286 289 290 292 294 296 298 299 301 302 304 306 307 308 309 311
248 251 252 253 255 256 255 256 257 258 259 262 262 259 259 260 262 265 267 269 270 273 275 278 281 283 284 285 287 289 291 293 295 297 298 299 299 300 302 304 306 308 309 310
252 254 256 258 259 259 259 260 261 262 262 260 260 259 260 262 265 267 270 272 274 276 277 280 282 284 286 287 288 290 292 294 295 297 297 298 298 299 301 303 304 306 308 309
253 255 257 259 261 263 263 263 263 263 261 259 261 263 265 265 266 268 271 274 277 278 279 281 283 285 286 288 288 290 292 293 295 296 296 297 298 299 301 302 304 305 307 308
254 256 258 259 261 263 263 264 263 262 261 261 262 265 267 268 268 270 272 275 278 280 281 282 284 285 286 288 289 290 292 293 294 295 296 297 298 299 300 302 303 305 306 307
255 257 259 260 262 262 262 263 263 263 262 263 264 265 267 269 271 272 274 276 278 279 281 283 284 286 287 288 289 291 292 293 294 295 296 297 298 299 300 301 302 304 305 305
257 259 260 261 262 263 263 263 263 262 263 265 265 266 268 270 272 274 275 277 280 281 282 284 285 286 287 289 290 292 293 293 294 295 296 296 297 298 299 300 302 303 303 304
259 260 260 261 262 263 264 266 265 265 265 266 267 268 269 270 272 274 276 278 280 281 283 284 285 286 288 289 290 291 293 294 294 295 296 296 297 298 299 300 301 302 302 303
260 261 262 263 264 266 267 267 267 267 267 268 269 270 271 272 273 275 277 279 280 282 283 284 285 287 288 289 290 292 293 294 295 295 296 296 297 298 298 299 300 301 302 302
Height
5822 5826 5829 5833 5837 5840 5844 5847 5850 5853 5855 5857 5859 5861 5863 5864 5866 5867 5869 5870 5871 5872 5873 5873 5874 5875 5875 5876 5876 5876 5876 5876 5876 5875 5874 5873 5872 5871 5869 5867 5865 5863 5861 5859
5824 5827 5830 5833 5837 5841 5844 5847 5850 5853 5855 5857 5858 5860 5862 5864 5865 5866 5868 5869 5870 5871 5872 5872 5873 5874 5875 5875 5875 5876 5876 5876 5875 5874 5874 5873 5872 5870 5868 5866 5864 5862 5860 5858
5825 5829 5831 5835 5838 5841 5844 5848 5850 5853 5855 5857 5859 5860 5862 5863 5864 5866 5867 5868 5869 5870 5870 5871 5872 5873 5874 5874 5875 5875 5875 5875 5874 5874 5873 5872 5871 5869 5867 5866 5864 5861 5859 5857
5827 5830 5833 5836 5839 5842 5845 5848 5850 5852 5855 5856 5859 5860 5862 5862 5864 5864 5866 5867 5868 5869 5870 5871 5871 5872 5873 5873 5874 5874 5874 5874 5873 5873 5872 5871 5870 5868 5866 5865 5863 5860 5858 5855
5829 5832 5835 5837 5840 5843 5845 5848 5850 5852 5854 5856 5858 5860 5862 5862 5863 5864 5865 5866 5867 5868 5869 5869 5870 5871 5872 5872 5873 5873 5873 5873 5873 5872 5871 5870 5869 5867 5865 5864 5862 5859 5856 5854
5831 5833 5836 5838 5841 5843 5846 5849 5850 5852 5854 5856 5858 5859 5861 5861 5862 5863 5864 5865 5866 5867 5867 5868 5869 5870 5870 5871 5871 5872 5872 5872 5871 5871 5870 5869 5868 5866 5864 5862 5860 5858 5855 5852
5832 5835 5837 5839 5841 5844 5847 5850 5852 5853 5854 5856 5857 5858 5861 5861 5861 5862 5863 5864 5864 5865 5866 5867 5868 5869 5869 5870 5870 5871 5871 5870 5870 5869 5868 5867 5866 5864 5862 5860 5858 5856 5853 5850
5833 5836 5838 5840 5842 5845 5847 5850 5853 5854 5855 5856 5857 5858 5860 5860 5860 5861 5862 5863 5863 5864 5865 5866 5867 5867 5868 5868 5869 5869 5869 5868 5868 5867 5866 5865 5864 5862 5860 5858 5856 5854 5851 5848
5835 5837 5838 5840 5843 5845 5847 5849 5851 5853 5854 5855 5856 5858 5859 5859 5859 5860 5861 5861 5862 5863 5864 5864 5865 5866 5866 5867 5867 5867 5867 5866 5866 5865 5864 5863 5862 5860 5858 5856 5853 5851 5848 5845
5836 5838 5839 5841 5843 5845 5847 5849 5850 5852 5853 5854 5855 5857 5858 5858 5858 5859 5860 5860 5861 5861 5862 5863 5863 5864 5864 5864 5865 5864 5864 5864 5863 5862 5861 5860 5858 5857 5855 5852 5850 5848 5845 5842
5837 5839 5840 5842 5844 5845 5847 5849 5849 5850 5852 5853 5854 5858 5857 5857 5857 5858 5858 5859 5859 5860 5860 5861 5861 5861 5862 5862 5862 5862 5861 5861 5860 5859 5858 5856 5855 5853 5851 5849 5847 5844 5841 5838
5837 5839 5840 5841 5843 5844 5845 5847 5848 5850 5851 5851 5852 5857 5855 5855 5855 5856 5857 5857 5857 5858 5858 5858 5858 5859 5859 5859 5859 5858 5858 5857 5856 5855 5854 5853 5851 5849 5847 5845 5842 5840 5837 5834
5837 5839 5840 5841 5844 5844 5844 5846 5847 5848 5849 5849 5851 5855 5853 5853 5853 5854 5854 5855 5855 5855 5855 5855 5856 5856 5856 5856 5855 5855 5854 5854 5853 5851 5850 5849 5847 5845 5843 5840 5838 5835 5832 5829
5836 5838 5840 5842 5842 5842 5843 5844 5845 5846 5847 5848 5849 5850 5851 5851 5851 5851 5852 5852 5852 5852 5852 5852 5852 5852 5852 5852 5852 5851 5850 5850 5848 5847 5846 5844 5842 5840 5838 5835 5832 5829 5826 5823
5835 5837 5838 5839 5840 5840 5841 5842 5843 5843 5844 5845 5847 5847 5848 5847 5848 5849 5849 5849 5849 5849 5849 5849 5849 5849 5849 5848 5848 5847 5846 5845 5844 5842 5841 5839 5837 5834 5832 5829 5826 5823 5820 5817
5833 5834 5835 5837 5837 5838 5839 5840 5840 5841 5841 5842 5843 5844 5844 5844 5844 5845 5845 5845 5845 5845 5845 5845 5845 5845 5845 5844 5843 5843 5841 5840 5839 5837 5835 5833 5831 5828 5826 5823 5820 5817 5813 5810
5830 5832 5833 5834 5834 5835 5836 5838 5837 5838 5838 5839 5839 5841 5840 5841 5841 5841 5841 5841 5841 5841 5841 5841 5841 5840 5840 5839 5838 5837 5836 5834 5833 5831 5829 5827 5824 5821 5818 5815 5812 5809 5806 5802
5827 5828 5829 5830 5832 5832 5836 5835 5834 5835 5835 5835 5836 5836 5836 5837 5837 5837 5837 5837 5837 5837 5837 5836 5836 5835 5835 5834 5833 5832 5830 5828 5826 5824 5822 5819 5817 5814 5811 5808 5805 5801 5798 5794
5823 5824 5825 5826 5827 5828 5831 5831 5830 5831 5832 5832 5831 5831 5832 5832 5833 5833 5833 5833 5832 5832 5832 5831 5831 5830 5829 5828 5827 5825 5824 5822 5819 5817 5814 5812 5809 5806 5803 5800 5797 5793 5790 5786
5819 5820 5821 5822 5822 5824 5827 5826 5825 5827 5827 5827 5826 5827 5827 5827 5828 5829 5828 5828 5827 5827 5826 5826 5825 5824 5823 5821 5820 5818 5816 5814 5812 5809 5806 5804 5801 5798 5795 5792 5789 5785 5781 5777
5815 5815 5816 5817 5817 5819 5821 5821 5821 5823 5823 5823 5822 5822 5822 5823 5823 5823 5823 5822 5822 5821 5820 5819 5818 5817 5816 5814 5813 5811 5809 5806 5804 5801 5798 5795 5792 5789 5786 5783 5780 5776 5772 5768
5809 5810 5811 5811 5812 5816 5815 5815 5816 5816 5816 5817 5817 5817 5817 5817 5817 5817 5817 5816 5816 5815 5814 5813 5812 5810 5808 5807 5805 5803 5800 5798 5795 5792 5789 5786 5783 5780 5777 5773 5770 5766 5762 5758
5804 5805 5806 5807 5809 5809 5808 5809 5809 5810 5810 5811 5811 5811 5811 5811 5811 5811 5810 5809 5809 5808 5807 5805 5804 5802 5800 5798 5796 5794 5791 5788 5786 5783 5780 5777 5773 5770 5767 5763 5759 5755 5751 5747
5798 5799 5799 5800 5802 5802 5802 5802 5803 5803 5804 5804 5804 5804 5804 5804 5804 5804 5803 5802 5801 5800 5798 5797 5795 5793 5791 5789 5786 5784 5781 5779 5776 5773 5770 5766 5763 5760 5756 5752 5748 5744 5740 5735
5791 5792 5792 5793 5794 5794 5795 5795 5796 5796 5797 5797 5797 5797 5797 5797 5796 5796 5795 5794 5793 5791 5790 5788 5786 5784 5782 5779 5777 5774 5771 5768 5765 5762 5759 5755 5752 5748 5744 5740 5736 5731 5727 5722
5784 5784 5784 5785 5786 5786 5787 5788 5788 5788 5788 5788 5788 5788 5788 5788 5787 5787 5786 5785 5783 5782 5780 5778 5776 5774 5772 5769 5766 5763 5760 5757 5754 5751 5747 5744 5740 5736 5732 5728 5724 5719 5714 5709